Regional Weather Roundup
Issued by NWS

Home | Current Version | Previous Version | Graphics & Text | Print | Product List | Glossary On
Versions: 1 2 3 4 5 6 7 8 9 10 11 12 13 14 15 16 17 18 19 20 21 22 23 24 25 26 27 28
000
ASUS45 KSLC 242210
RWRUT

UTAH REGIONAL WEATHER ROUNDUP
NATIONAL WEATHER SERVICE SALT LAKE CITY UT
400 PM MDT FRI OCT 24 2014

UTZ001>011-023>025-242300-

NORTHERN UTAH

CITY           SKY/WX    TMP DP  RH WIND       PRES   REMARKS
BRIGHAM CITY   MOSUNNY   74  30  20 S6        30.12F
HILL AFB       SUNNY     75  32  20 SW5       30.14F
LOGAN          SUNNY     75  30  19 S13       30.12F
OGDEN          SUNNY     76  32  20 S5        30.11F
PROVO AIRPORT  SUNNY     79  30  17 E3        30.13F
SALT LAKE CITY SUNNY     79  28  15 S15       30.09F
VERNAL         SUNNY     69  37  30 SE8       30.21F
WENDOVER       SUNNY     64  30  27 SE5       30.11F
HEBER CITY     SUNNY     73  27  17 SW12G21   30.19S
WEST JORDAN    SUNNY     77  43  29 SE14G21   30.12F

$$

UTZ012>022-026-027-242300-

SOUTHERN/CENTRAL UTAH

CITY           SKY/WX    TMP DP  RH WIND       PRES   REMARKS
BLANDING       SUNNY     72  33  23 S6        30.36F
BRYCE CANYON   SUNNY     67  31  26 SE18      30.35F
CEDAR CITY     SUNNY     75  24  15 SW18G24   30.20F
DELTA          SUNNY     79  26  14 SW13G18   30.13F
HANKSVILLE       N/A     79  32  18 E3        30.18F
MILFORD        SUNNY     78  28  16 S16       30.15F
MOAB/CYNLANDS  SUNNY     77  33  20 SE5       30.16F
PRICE          SUNNY     69  31  24 SE9       30.26F
ST GEORGE      CLEAR     81  39  22 NW3       30.09F
KANAB            N/A     79  32  18 SW5       30.23F

$$

REGIONAL REPORTS     COLORADO/ARIZONA

CITY           SKY/WX    TMP DP  RH WIND       PRES   REMARKS
CRAIG, CO      SUNNY     74  26  16 SW17      30.24F
GRAND JUNCTION SUNNY     73  34  23 NW7       30.22F
RIFLE          SUNNY     72  34  24 W10       30.24F
MONTROSE       SUNNY     75  30  19 NW3       30.28S
CORTEZ         SUNNY     74  31  20 CALM      30.30S
PAGE, AZ       SUNNY     76  33  21 NE5       30.18F
GRAND CANYON   SUNNY     74  23  15 SW8       30.31F
KINGMAN        SUNNY     84  40  21 W5        30.11F
FLAGSTAFF      SUNNY     71  24  17 SW12      30.35S

$$

REGIONAL REPORTS    NEVADA/IDAHO/WYOMING

CITY           SKY/WX    TMP DP  RH WIND       PRES   REMARKS
LAS VEGAS, NV  SUNNY     85  39  19 VRB3      29.98F
ELY            SUNNY     73  22  14 S16G24    30.19S
ELKO           SUNNY     79  20  11 S8        30.05F
POCATELLO, ID  SUNNY     75  27  17 SW10      30.08F
BURLEY         SUNNY     75  34  22 N6        30.03F
EVANSTON, WY   SUNNY     70  23  17 W20       30.25S
ROCK SPRINGS   SUNNY     68  23  18 SW16      30.23S
KEMMERER       SUNNY     64  18  16 W17G25    30.26S

$$



USA.gov is the U.S. government's official web portal to all federal, state and local government web resources and services.